Weather History for Defiance, OH

Change the Weather History Date:

Tuesday, January 15, 2013

  Actual Average Record
Temperature  
Mean Temperature 23 °F -  
Max Temperature 30 °F 29 °F 59 °F (1952)
Min Temperature 16 °F 13 °F -12 °F (1972)
Degree Days  
Heating Degree Days 42    
Moisture  
Dew Point 17 °F    
Average Humidity 74    
Maximum Humidity 85    
Minimum Humidity 64    
Precipitation  
Precipitation 0.00 in - - ()
Sea Level Pressure  
Sea Level Pressure 30.36 in    
Wind  
Wind Speed 2 mph (NE)    
Max Wind Speed 7 mph    
Max Gust Speed -    
Visibility 10 miles    
Events      
Averages and records for this station are not official NWS values.
T = Trace of Precipitation, MM = Missing Value Source: NWS Daily Summary

Daily Weather History Graph

Daily Weather History Graph

Search for Another Location

Airport:

Trip Planner

Search our weather history database for the weather conditions in past years. The results will help you decide how hot, cold, wet, or windy it might be!

Date:

Astronomy

Jan. 15, 2013 Rise Set
Actual Time 8:01 AM EST 5:33 PM EST
Civil Twilight 7:30 AM EST 6:04 PM EST
Nautical Twilight 6:56 AM EST 6:38 PM EST
Astronomical Twilight 6:23 AM EST 7:11 PM EST
Moon 10:03 AM EST (1/15) 10:26 PM EST (1/15)
Length of Visible Light 10h 33m
Length of Day
9h 32m
Waxing Crescent, 19% of the Moon is Illuminated
Jan 15
Waxing Crescent
Jan 18
First Quarter
Jan 26
Full
Feb 3
Last Quarter
Feb 10
New

Hourly Weather History & Observations

Time (EST) Temp. Windchill Dew Point Humidity Pressure Visibility Wind Dir Wind Speed Gust Speed Precip Events Conditions
12:53 AM 19.9 °F - 16.0 °F 85% 30.43 in 9.0 mi Calm Calm - N/A   Clear
1:53 AM 19.0 °F - 15.1 °F 85% 30.44 in 9.0 mi Calm Calm - N/A   Clear
2:53 AM 19.0 °F - 15.1 °F 85% 30.44 in 8.0 mi Calm Calm - N/A   Clear
3:53 AM 18.0 °F 12.7 °F 14.0 °F 84% 30.43 in 9.0 mi NNW 3.5 mph - N/A   Clear
4:53 AM 18.0 °F 9.8 °F 14.0 °F 84% 30.43 in 10.0 mi NNW 5.8 mph - N/A   Clear
6:53 AM 16.0 °F - 12.0 °F 84% 30.45 in 10.0 mi Calm Calm - N/A   Clear
7:53 AM 16.0 °F - 12.0 °F 84% 30.45 in 9.0 mi Calm Calm - N/A   Clear
8:53 AM 19.0 °F - 15.1 °F 85% 30.46 in 7.0 mi Calm Calm - N/A   Clear
9:53 AM 24.1 °F - 18.0 °F 77% 30.45 in 10.0 mi Calm Calm - N/A   Clear
10:53 AM 26.1 °F 19.4 °F 18.0 °F 71% 30.46 in 10.0 mi Variable 5.8 mph - N/A   Clear
11:53 AM 28.9 °F 21.9 °F 19.0 °F 67% 30.43 in 10.0 mi NE 6.9 mph - N/A   Clear
12:53 PM 28.0 °F 22.8 °F 18.0 °F 66% 30.38 in 10.0 mi ENE 4.6 mph - N/A   Clear
1:53 PM 30.0 °F 23.2 °F 19.0 °F 64% 30.36 in 10.0 mi ENE 6.9 mph - N/A   Clear
2:23 PM 28.4 °F 21.2 °F 19.4 °F 69% 30.30 in 10.0 mi East 6.9 mph - N/A   Mostly Cloudy
2:53 PM 28.9 °F 22.8 °F 18.0 °F 64% 30.33 in 10.0 mi Variable 5.8 mph - N/A   Scattered Clouds
3:53 PM 28.9 °F 22.8 °F 19.0 °F 67% 30.32 in 10.0 mi East 5.8 mph - N/A   Clear
4:53 PM 28.9 °F 22.8 °F 19.0 °F 67% 30.32 in 10.0 mi East 5.8 mph - N/A   Mostly Cloudy
5:53 PM 28.9 °F 23.9 °F 18.0 °F 64% 30.31 in 10.0 mi ENE 4.6 mph - N/A   Partly Cloudy
6:53 PM 28.0 °F - 18.0 °F 66% 30.30 in 10.0 mi Calm Calm - N/A   Partly Cloudy
7:53 PM 28.0 °F 22.8 °F 19.9 °F 72% 30.27 in 10.0 mi NNE 4.6 mph - N/A   Overcast
8:53 PM 28.0 °F 24.2 °F 19.0 °F 69% 30.25 in 10.0 mi NE 3.5 mph - N/A   Mostly Cloudy
9:53 PM 27.0 °F 20.5 °F 19.0 °F 72% 30.21 in 10.0 mi ENE 5.8 mph - N/A   Clear
10:53 PM 26.1 °F 21.9 °F 17.1 °F 69% 30.19 in 10.0 mi NE 3.5 mph - N/A   Partly Cloudy
11:53 PM 25.0 °F - 18.0 °F 75% 30.16 in 10.0 mi Calm Calm - N/A   Clear